• Join FlightAware (Why Join?)
  • Login
  • US Flag 
02:35PM EDT


 

Airport Tracker/Info


-or-


 

Live Flight TrackerFlight Track Log ✈ N6630A ✈ 25-Jan-2014 ✈ KAPF - KXFL

Flight Track Log - Related Links

Times and Time Zones

All times are in EST time to prevent confusion due to time zone crossing. See the N6630A flight status page for this flight to view local times or setup timezone preferences in your user account.

Time Position Orientation Groundspeed Altitude Reporting Facility
EST Latitude Longitude Course Direction KTS MPH feet Rate Location/Type
04:57PM 26.6483 -81.4144 North 191 220 5,500  Level Miami Center
04:58PM 26.8106 -81.6523 North  Level FlightAware Approximate
04:58PM 26.6889 -81.3881 30° Northeast 179 206 5,400  Level Miami Center
04:59PM 26.8565 -81.6449 North  Level FlightAware Approximate
04:59PM 26.7358 -81.3572 30° Northeast 169 194 5,400  Level Miami Center
05:00PM 26.9024 -81.6376 North  Level FlightAware Approximate
05:00PM 26.7761 -81.3308 30° Northeast 164 189 5,500  Level Miami Center
05:01PM 26.9483 -81.6303 North  Level FlightAware Approximate
05:01PM 26.8147 -81.2997 36° Northeast 170 196 5,400  Level Miami Center
05:02PM 26.9942 -81.6229 North  Level FlightAware Approximate
05:02PM 26.8556 -81.2664 36° Northeast 175 201 5,500  Level Miami Center
05:03PM 26.8939 -81.2353 36° Northeast 175 201 5,400 -60 Descending Miami Center
05:04PM 26.9325 -81.2042 36° Northeast 175 201 5,400  Level Miami Center
05:05PM 26.9711 -81.1706 38° Northeast 168 193 5,400  Level Miami Center
05:06PM 27.0094 -81.1394 36° Northeast 173 199 5,500  Climbing Miami Center
05:07PM 27.0481 -81.1036 40° Northeast 173 199 5,400  Descending Miami Center
05:08PM 27.0867 -81.0722 36° Northeast 173 199 5,500  Climbing Miami Center
05:09PM 27.1272 -81.0411 34° Northeast 173 199 5,500 -60 Level Miami Center
05:10PM 27.1614 -81.0119 37° Northeast 173 199 5,400  Descending Miami Center
05:11PM 27.1981 -80.9783 39° Northeast 173 199 5,500  Climbing Miami Center
05:12PM 27.2367 -80.9375 43° Northeast 173 199 5,400 -60 Descending Miami Center
05:13PM 27.2733 -80.8992 43° Northeast 168 193 5,400  Level Miami Center
05:14PM 27.3097 -80.8631 41° Northeast 173 199 5,400  Level Miami Center
05:15PM 27.3442 -80.8269 43° Northeast 173 199 5,400  Level Miami Center
05:16PM 27.3847 -80.7908 38° Northeast 173 199 5,400  Level Miami Center
05:17PM 27.4233 -80.7572 38° Northeast 173 199 5,400  Level Miami Center
05:18PM 27.4636 -80.7303 31° Northeast 168 193 5,500  Climbing Miami Center
05:19PM 27.5053 -80.7317 358° North 162 186 5,500 -60 Level Miami Center
05:20PM 27.5514 -80.7311 North 162 186 5,400  Descending Miami Center
05:21PM 27.5992 -80.7397 351° North 162 186 5,500  Climbing Miami Center
05:22PM 27.6447 -80.7481 351° North 162 186 5,400 -60 Descending Miami Center
05:23PM 27.6842 -80.7614 343° North 162 186 5,400  Level Miami Center
05:24PM 27.7256 -80.7744 344° North 157 181 5,500  Climbing Miami Center
05:25PM 27.7733 -80.7856 348° North 157 181 5,500  Level Miami Center
05:27PM 27.8500 -80.8000 351° North 158 182 5,500  Level Orlando TRACON
05:28PM 27.9000 -80.8167 344° North 162 186 5,500  Level Orlando TRACON
05:29PM 27.9333 -80.8167 360° North 162 186 5,500  Level Orlando TRACON
05:30PM 27.9833 -80.8167 360° North 161 185 5,500  Level Orlando TRACON
05:31PM 28.0333 -80.8333 344° North 162 186 5,500 -60 Level Orlando TRACON
05:32PM 28.0667 -80.8333 360° North 168 193 5,400 -60 Descending Orlando TRACON
05:33PM 28.1167 -80.8500 344° North 166 191 5,400  Level Orlando TRACON
05:34PM 28.1667 -80.8500 360° North 160 184 5,500  Climbing Orlando TRACON
05:35PM 28.2000 -80.8667 336° Northwest 158 182 5,500  Level Orlando TRACON
05:36PM 28.2500 -80.8667 360° North 157 181 5,500 -60 Level Orlando TRACON
05:37PM 28.3000 -80.8833 344° North 157 181 5,400 -60 Descending Orlando TRACON
05:38PM 28.3333 -80.8833 360° North 157 181 5,400  Level Orlando TRACON
05:39PM 28.3667 -80.8833 360° North 156 180 5,400  Level Orlando TRACON
05:40PM 28.4167 -80.9000 344° North 156 180 5,500  Climbing Orlando TRACON
05:41PM 28.4667 -80.8833 16° North 175 201 5,400  Descending Orlando TRACON
05:42PM 28.5167 -80.8667 16° North 172 198 5,500  Climbing Orlando TRACON
05:43PM 28.5500 -80.8500 24° Northeast 167 192 5,400  Descending Orlando TRACON
05:44PM 28.6000 -80.8500 360° North 155 178 5,500  Climbing Orlando TRACON
05:45PM 28.6500 -80.8500 360° North 155 178 5,500  Level Orlando TRACON
05:46PM 28.6833 -80.8667 336° Northwest 157 181 5,500  Level Orlando TRACON
05:47PM 28.7333 -80.8667 360° North 160 184 5,500 -60 Level Orlando TRACON
05:49PM 28.8356 -80.8875 350° North 153 176 5,400 -60 Descending Jacksonville Center
05:50PM 28.8794 -80.8983 348° North 154 177 5,400  Level Jacksonville Center
05:51PM 28.9131 -80.9167 334° Northwest 153 176 5,500  Climbing Jacksonville Center
05:52PM 28.9553 -80.9350 339° North 147 169 5,400 -360 Descending Jacksonville Center
05:53PM 28.9889 -80.9533 334° Northwest 148 170 4,800 -540 Descending Jacksonville Center
05:54PM 29.0289 -80.9761 334° Northwest 154 177 4,400 -240 Descending Jacksonville Center
05:55PM 29.0669 -81.0064 325° Northwest 137 158 4,400  Level Jacksonville Center
05:57PM 29.0964 -81.0294 326° Northwest 134 154 4,400  Level Jacksonville Center
05:58PM 29.1281 -81.0528 327° Northwest 133 153 4,400 -120 Level Jacksonville Center
05:59PM 29.1575 -81.0758 326° Northwest 144 166 4,200 -240 Descending Jacksonville Center
05:59PM 29.1892 -81.0967 330° Northwest 139 160 4,000 -540 Descending Jacksonville Center
06:00PM 29.2289 -81.0983 358° North 176 203 3,300 -540 Descending Jacksonville Center
06:01PM 29.2750 -81.1119 346° North 142 163 3,000 -420 Descending Jacksonville Center
06:02PM 29.3150 -81.1278 341° North 168 193 2,500 -540 Descending Jacksonville Center